Avery Island, LA

12:59 PM CDT on August 25, 2016 (GMT -0500)
Acadiana Regional

Weather History for KARA - February, 2014

Change the Weather History Date:

Thursday, February 20, 2014

  Actual Average Record
Temperature  
Mean Temperature 71 °F 57 °F  
Max Temperature 77 °F 67 °F 80 °F (1994)
Min Temperature 64 °F 47 °F 29 °F (1978)
Degree Days  
Heating Degree Days 0 9  
Month to date heating degree days 250 214  
Since 1 July heating degree days 1456 1151  
Cooling Degree Days 6 1  
Month to date cooling degree days 15 16  
Year to date cooling degree days 15 28  
Growing Degree Days 20 (Base 50)    
Moisture  
Dew Point 66 °F    
Average Humidity 88    
Maximum Humidity 97    
Minimum Humidity 79    
Precipitation  
Precipitation 0.40 in 0.16 in 1.82 in (1991)
Month to date precipitation 4.36 2.97  
Year to date precipitation 6.71 8.19  
Sea Level Pressure  
Sea Level Pressure 29.90 in    
Wind  
Wind Speed 17 mph (South)    
Max Wind Speed 25 mph    
Max Gust Speed 36 mph    
Visibility 7 miles    
Events Rain , Thunderstorm    
T = Trace of Precipitation, MM = Missing Value Source: NWS Daily Summary

Daily Weather History Graph

Daily Weather History Graph

Search for Another Location

Airport or City:

Trip Planner

Search our weather history database for the weather conditions in past years. The results will help you decide how hot, cold, wet, or windy it might be!

Date:

Astronomy

Feb. 20, 2014 Rise Set
Actual Time 6:42 AM CST 6:00 PM CST
Civil Twilight 6:18 AM CST 6:24 PM CST
Nautical Twilight 5:50 AM CST 6:52 PM CST
Astronomical Twilight 5:22 AM CST 7:20 PM CST
Moon 11:27 PM CST (2/20) 9:51 AM CST (2/20)
Length of Visible Light 12h 05m
Length of Day
11h 17m
Waning Gibbous, 70% of the Moon is Illuminated
Feb 20
Waning Gibbous
Feb 22
Last Quarter
Mar 1
New
Mar 8
First Quarter
Mar 16
Full

Hourly Weather History & Observations

Time (CST) Temp. Dew Point Humidity Pressure Visibility Wind Dir Wind Speed Gust Speed Precip Events Conditions
12:53 AM 68.0 °F 66.0 °F 93% 29.91 in 7.0 mi South 13.8 mph - N/A   Overcast
1:53 AM 69.1 °F 66.0 °F 90% 29.91 in 9.0 mi South 16.1 mph 25.3 mph N/A   Overcast
2:01 AM 69.1 °F 66.0 °F 90% 29.91 in 9.0 mi South 16.1 mph 23.0 mph N/A   Overcast
2:10 AM 68.0 °F 64.9 °F 90% 29.91 in 10.0 mi South 18.4 mph 27.6 mph N/A   Overcast
2:53 AM 68.0 °F 66.0 °F 93% 29.91 in 9.0 mi South 17.3 mph 24.2 mph N/A   Mostly Cloudy
3:02 AM 68.0 °F 64.9 °F 90% 29.91 in 8.0 mi South 16.1 mph - N/A   Overcast
3:09 AM 68.0 °F 64.9 °F 90% 29.91 in 7.0 mi South 17.3 mph - 0.00 in Rain Light Rain
3:53 AM 68.0 °F 64.9 °F 90% 29.90 in 9.0 mi South 17.3 mph - 0.00 in   Overcast
4:53 AM 66.9 °F 64.0 °F 90% 29.90 in 8.0 mi South 13.8 mph - N/A   Overcast
5:07 AM 66.9 °F 64.0 °F 90% 29.90 in 7.0 mi South 13.8 mph - N/A   Overcast
5:28 AM 66.9 °F 64.0 °F 90% 29.91 in 7.0 mi South 15.0 mph - N/A   Overcast
5:46 AM 66.9 °F 64.0 °F 90% 29.91 in 7.0 mi South 12.7 mph - N/A   Overcast
5:53 AM 66.9 °F 64.0 °F 90% 29.91 in 7.0 mi South 12.7 mph - N/A   Overcast
6:19 AM 66.0 °F 64.0 °F 93% 29.92 in 5.0 mi South 12.7 mph - N/A   Overcast
6:26 AM 66.0 °F 64.0 °F 93% 29.92 in 5.0 mi South 11.5 mph - N/A   Overcast
6:53 AM 66.0 °F 64.0 °F 93% 29.92 in 5.0 mi South 11.5 mph - N/A   Overcast
7:16 AM 66.0 °F 64.0 °F 93% 29.91 in 6.0 mi South 12.7 mph - N/A   Scattered Clouds
7:35 AM 68.0 °F 64.9 °F 90% 29.91 in 7.0 mi South 16.1 mph - N/A   Mostly Cloudy
7:53 AM 68.0 °F 64.9 °F 90% 29.92 in 6.0 mi South 11.5 mph - N/A   Overcast
8:53 AM 70.0 °F 66.0 °F 87% 29.93 in 8.0 mi South 17.3 mph - N/A   Mostly Cloudy
9:01 AM 70.0 °F 66.0 °F 87% 29.93 in 8.0 mi South 13.8 mph - N/A   Mostly Cloudy
9:26 AM 71.1 °F 66.0 °F 84% 29.94 in 9.0 mi South 15.0 mph - N/A   Overcast
9:53 AM 72.0 °F 66.9 °F 84% 29.92 in 8.0 mi South 18.4 mph - N/A   Overcast
10:21 AM 73.0 °F 66.9 °F 81% 29.92 in 10.0 mi South 18.4 mph 31.1 mph 0.00 in Rain Light Rain
10:40 AM 75.0 °F 66.9 °F 76% 29.92 in 10.0 mi South 19.6 mph 29.9 mph 0.00 in   Scattered Clouds
10:53 AM 75.0 °F 66.9 °F 76% 29.92 in 10.0 mi South 20.7 mph - 0.00 in Rain Light Rain
11:30 AM 77.0 °F 68.0 °F 74% 29.92 in 10.0 mi South 19.6 mph 27.6 mph 0.00 in   Mostly Cloudy
11:39 AM 75.9 °F 66.9 °F 74% 29.92 in 10.0 mi South 21.9 mph 29.9 mph 0.00 in   Mostly Cloudy
11:50 AM 75.2 °F 66.2 °F 73% 29.92 in 10.0 mi South 19.6 mph 31.1 mph 0.00 in   Overcast
11:53 AM 77.0 °F 68.0 °F 74% 29.92 in 10.0 mi South 18.4 mph 29.9 mph 0.00 in   Overcast
12:53 PM 75.0 °F 68.0 °F 79% 29.90 in 10.0 mi South 18.4 mph 26.5 mph N/A   Overcast
1:48 PM 75.2 °F 69.8 °F 83% 29.88 in 10.0 mi South 17.3 mph - 0.00 in   Overcast
1:53 PM 75.0 °F 68.0 °F 79% 29.88 in 10.0 mi South 16.1 mph - 0.00 in   Overcast
2:53 PM 73.9 °F 68.0 °F 82% 29.86 in 8.0 mi South 13.8 mph - N/A   Overcast
3:53 PM 73.0 °F 68.0 °F 84% 29.85 in 7.0 mi South 17.3 mph 23.0 mph 0.00 in   Overcast
4:53 PM 73.0 °F 68.0 °F 84% 29.83 in 7.0 mi South 19.6 mph 29.9 mph 0.00 in   Overcast
5:06 PM 72.0 °F 68.0 °F 87% 29.82 in 7.0 mi South 19.6 mph 31.1 mph N/A   Overcast
5:53 PM 72.0 °F 69.1 °F 91% 29.83 in 6.0 mi South 20.7 mph 26.5 mph N/A   Overcast
6:53 PM 71.1 °F 68.0 °F 90% 29.82 in 7.0 mi South 19.6 mph 28.8 mph N/A   Overcast
7:35 PM 71.1 °F 68.0 °F 90% 29.83 in 7.0 mi South 18.4 mph 31.1 mph 0.00 in Rain Light Rain
7:53 PM 71.1 °F 69.1 °F 93% 29.83 in 7.0 mi South 20.7 mph 29.9 mph 0.00 in Rain Light Rain
8:24 PM 71.1 °F 68.0 °F 90% 29.84 in 7.0 mi South 20.7 mph - 0.00 in   Overcast
8:53 PM 70.0 °F 68.0 °F 93% 29.86 in 5.0 mi SSW 20.7 mph 31.1 mph 0.00 in Rain Light Rain
9:08 PM 70.0 °F 68.0 °F 93% 29.86 in 5.0 mi SSW 21.9 mph 28.8 mph 0.00 in   Overcast
9:36 PM 70.0 °F 68.0 °F 93% 29.88 in 4.0 mi SSW 16.1 mph 25.3 mph 0.00 in Rain , Thunderstorm Light Rain
9:53 PM 70.0 °F 68.0 °F 93% 29.89 in 6.0 mi SSW 19.6 mph 26.5 mph 0.00 in Rain , Thunderstorm Light Rain
10:43 PM 70.0 °F 68.0 °F 93% 29.91 in 4.0 mi SW 10.4 mph - 0.10 in Rain , Thunderstorm Heavy Rain
10:53 PM 70.0 °F 68.0 °F 93% 29.91 in 4.0 mi WSW 10.4 mph - 0.13 in Rain , Thunderstorm Heavy Rain
11:07 PM 72.0 °F 68.0 °F 87% 29.92 in 4.0 mi SW 10.4 mph - 0.04 in Rain , Thunderstorm Rain
11:17 PM 66.9 °F 64.0 °F 90% 29.94 in 2.0 mi NNW 16.1 mph 31.1 mph 0.14 in Rain , Thunderstorm Thunderstorms and Rain
11:23 PM 66.9 °F 64.0 °F 90% 29.97 in 3.0 mi NNW 8.1 mph - 0.20 in Rain , Thunderstorm Heavy Thunderstorms and Rain
11:27 PM 66.0 °F 64.0 °F 93% 29.96 in 1.8 mi North 12.7 mph - 0.26 in Rain , Thunderstorm Heavy Thunderstorms and Rain
11:32 PM 66.0 °F 63.0 °F 90% 29.96 in 2.0 mi North 23.0 mph 28.8 mph 0.27 in Rain , Thunderstorm Heavy Thunderstorms and Rain
11:40 PM 64.9 °F 61.0 °F 87% 29.96 in 8.0 mi North 15.0 mph 27.6 mph 0.27 in Rain , Thunderstorm Light Rain
11:49 PM 64.4 °F 59.0 °F 83% 29.96 in 10.0 mi NNE 15.0 mph - 0.27 in Rain Light Rain
11:53 PM 64.0 °F 59.0 °F 84% 29.97 in 10.0 mi North 13.8 mph - 0.27 in Rain Light Rain